Simultaneous Nadir Overpasses (SNOs) Predictions

Prediction of SNOs between NOAA-20 and METOP-C Satellite Orbit:

Table of predicted SNOs for the next 14.0 days since TLE Epoch: 12/7/2018
Index Date (NOAA-20) Time (NOAA-20) Lat,Lon (NOAA-20) SZA (NOAA-20 ) Date (METOP-C) Time (METOP-C) Lat,Lon (METOP-C) SZA (METOP-C ) Distance(km) Time Diff (sec)
1 12/20/2018 21:01:59 73.43,-145.25 96.96 12/20/2018 21:03:06 73.38,-142.63 96.81 83.43 67
2 12/20/2018 21:52:41 -73.32, 22.31 83.16 12/20/2018 21:53:50 -73.27, 24.45 83.30 68.60 69
3 12/20/2018 22:43:23 73.13,-169.97 96.65 12/20/2018 22:44:33 73.11,-168.57 96.56 45.23 70
4 12/20/2018 23:34:05 -73.03, -2.42 83.48 12/20/2018 23:35:17 -73.00, -1.48 83.55 30.58 72
5 12/21/2018 00:24:47 72.84, 165.29 96.33 12/21/2018 00:26:01 72.78, 165.40 96.26 6.88 74
6 12/21/2018 01:15:30 -72.78, -27.27 83.74 12/21/2018 01:16:43 -72.78, -27.29 83.75 0.68 73
7 12/21/2018 02:06:16 72.79, 140.01 96.28 12/21/2018 02:07:23 72.76, 140.02 96.24 3.18 67
8 12/21/2018 02:57:00 -72.79, -52.66 83.73 12/21/2018 02:58:05 -72.76, -52.67 83.77 3.21 65
9 12/21/2018 03:47:45 72.75, 114.73 96.23 12/21/2018 03:48:45 72.74, 114.64 96.22 3.03 60
10 12/21/2018 04:38:30 -72.79, -78.04 83.72 12/21/2018 04:39:26 -72.79, -77.94 83.74 3.38 56
11 12/21/2018 05:29:15 72.76, 89.34 96.24 12/21/2018 05:30:06 72.78, 89.37 96.25 2.44 51
12 12/21/2018 06:19:59 -72.75,-103.33 83.77 12/21/2018 06:20:48 -72.77,-103.32 83.76 2.35 49
13 12/21/2018 07:10:45 72.76, 63.96 96.25 12/21/2018 07:11:28 72.76, 63.99 96.24 1.09 43
14 12/21/2018 08:01:29 -72.75,-128.71 83.76 12/21/2018 08:02:10 -72.75,-128.70 83.77 0.62 41
15 12/21/2018 08:52:14 72.72, 38.67 96.20 12/21/2018 08:52:50 72.74, 38.60 96.22 3.19 36
16 12/21/2018 09:42:59 -72.76,-154.10 83.76 12/21/2018 09:43:32 -72.73,-154.08 83.79 3.40 33
17 12/21/2018 10:33:44 72.72, 13.29 96.21 12/21/2018 10:34:12 72.72, 13.22 96.20 2.20 28
18 12/21/2018 11:24:28 -72.72,-179.38 83.80 12/21/2018 11:24:54 -72.71,-179.46 83.81 2.68 26
19 12/21/2018 12:15:14 72.73, -12.10 96.22 12/21/2018 12:15:33 72.75, -12.05 96.23 2.62 19
20 12/21/2018 13:05:58 -72.72, 155.23 83.80 12/21/2018 13:06:15 -72.74, 155.26 83.78 2.45 17
21 12/21/2018 13:56:44 72.74, -37.49 96.22 12/21/2018 13:56:55 72.73, -37.43 96.21 2.04 11
22 12/21/2018 14:47:28 -72.73, 129.84 83.79 12/21/2018 14:47:37 -72.72, 129.88 83.80 1.48 9
23 12/21/2018 15:38:13 72.69, -62.77 96.18 12/21/2018 15:38:17 72.71, -62.81 96.20 2.36 4
24 12/21/2018 16:28:57 -72.68, 104.56 83.84 12/21/2018 16:28:59 -72.70, 104.50 83.81 2.83 2
25 12/21/2018 17:19:43 72.70, -88.16 96.18 12/21/2018 17:19:39 72.69, -88.19 96.18 1.52 4
26 12/21/2018 18:10:27 -72.69, 79.17 83.83 12/21/2018 18:10:21 -72.68, 79.12 83.83 1.79 6




NCC Satellite Simultaneous Nadir Overpasses (SNOs) Prediction Service
